Location: Coupvray
(48.8929°N, 2.7967°E)
Time: 04:32:37
(UTC+00:00)

Cosmos 1703 Rocket - Pass Details

Date: 14 July 2020
Orbit: 605 x 634 km, 82.5° (Epoch: 06 August)

Event Time Altitude Azimuth Distance (km) Brightness Sun altitude
Rises 00:29:05 0° 355° (N) 2,936 8.5 -19.1°
Reaches altitude 10° 00:31:26 10° 2° (N) 2,020 7.4 -19.0°
Maximum altitude 00:35:43 43° 75° (ENE) 879 4.5 -18.9°
Enters shadow 00:38:05 23° 134° (SE) 1,329 4.9 -18.8°
